This demonstration page uses our WeatherBlox Daily Observations layout. Learn more.

Left ArrowRight Arrow

39.92423, -83.80882

Hourly Observations for June 17, 2021

Temp ( °F °C ) Dew Point ( °F °C ) Humidity (%) Winds ( mph kmh ) Pressure ( in mb ) Visibility ( mi km ) Precip ( " mm )
12:56 am 00:56 Clear 58 14.4 50 10 75 75 N N/A 30.05 1018 10 16 N/A
1:56 am 01:56 Mostly Clear 56 13.3 51 10.6 84 84 N N/A 30.04 1017 10 16 N/A
2:56 am 02:56 Clear 55 12.8 52 11.1 90 90 E 3 6 30.05 1018 10 16 N/A
3:56 am 03:56 Clear 55 12.8 51 10.6 87 87 E 5 7 30.04 1017 10 16 N/A
4:56 am 04:56 Clear 54 12.2 50 10 87 87 N N/A 30.04 1017 10 16 N/A
5:56 am 05:56 Clear 52 11.1 50 10 93 93 ESE 3 6 30.06 1018 10 16 N/A
6:56 am 06:56 Sunny 53 11.7 51 10.6 93 93 ESE 3 6 30.07 1018 10 16 N/A
7:56 am 07:56 Sunny 63 17.2 49 9.4 60 60 SSE 7 11 30.06 1018 10 16 N/A
8:56 am 08:56 Sunny 68 20 51 10.6 55 55 S 5 7 30.07 1018 8 13 N/A
9:56 am 09:56 Sunny 73 22.8 52 11.1 48 48 SW 7 11 30.07 1018 10 16 N/A
10:56 am 10:56 Sunny 76 24.4 50 10 40 40 SSW 7 11 30.08 1019 10 16 N/A
11:56 am 11:56 Sunny 77 25 54 12.2 45 45 SW 7 11 30.07 1018 10 16 N/A
12:56 pm 12:56 Sunny 79 26.1 56 13.3 45 45 WSW 10 17 30.06 1018 10 16 N/A
1:56 pm 13:56 Sunny 80 26.7 56 13.3 44 44 VRB 5 7 30.05 1018 10 16 N/A
2:56 pm 14:56 Sunny 82 27.8 55 12.8 40 40 SW 9 15 30.02 1017 10 16 N/A
3:56 pm 15:56 Sunny 83 28.3 54 12.2 37 37 S 9 15 30.00 1016 10 16 N/A
4:56 pm 16:56 Sunny 83 28.3 53 11.7 36 36 SW 7 11 30.00 1016 10 16 N/A
5:56 pm 17:56 Sunny 83 28.3 53 11.7 36 36 SSW 6 9 30.00 1016 10 16 N/A
6:56 pm 18:56 Sunny 82 27.8 54 12.2 38 38 S 8 13 29.98 1015 10 16 N/A
7:56 pm 19:56 Sunny 81 27.2 56 13.3 42 42 S 6 9 29.98 1015 10 16 N/A
8:56 pm 20:56 Sunny 77 25 58 14.4 52 52 S 5 7 29.99 1016 10 16 N/A
9:56 pm 21:56 Clear 72 22.2 59 15 64 64 N N/A 30.01 1016 10 16 N/A
10:56 pm 22:56 Clear 72 22.2 59 15 64 64 S 6 9 30.01 1016 10 16 N/A
11:56 pm 23:56 Clear 71 21.7 59 15 66 66 SSW 5 7 30.01 1016 10 16 N/A

Powered by AerisWeather